DLH630 EDDF-OMDB

Flight info

Callsign DLH630
Flight time N/A
Altitude 37000
Route TOBAK8M/25C TOBAK N858 SWALM T201 TAMEB DCT NEVKO DCT OMELO DCT VOZ DCT PISAM DCT TEKNO DCT KEROP DCT NISVA DCT VANET DCT NIKTI DCT LMO DCT RIKSO DCT YOYYO UG80 BANRO DCT VANZA/N0484F390 DCT LAKTO L560 SILKA M872 BDB Y214 RAPMA DCT KUVSO DCT KATIT DCT PEKEM M628 RIGIL G783 ELUDA/N0470F350 G783 ASPED Q308 KIPOK Q568 IMPED
Aircraft A388/J-SADE2E3FGHIJ3J4J5M1RWXY/LB1D1

Departure

Time N/A
Airport Frankfurt Main Airport (EDDF)

Arrival

Time 2026-04-25 00:09
Airport Dubai International Airport (OMDB)
Time Latitude Longitude Altitude Speed Heading
2026-04-24 22:44 23.62151 45.80215 37164 ft 567 kts 97°
2026-04-24 22:45 23.61418 45.88708 37169 ft 567 kts 97°
2026-04-24 22:45 23.60676 45.97257 37167 ft 567 kts 97°
2026-04-24 22:46 23.59928 46.05824 37175 ft 567 kts 97°
2026-04-24 22:46 23.59174 46.14394 37194 ft 567 kts 97°
2026-04-24 22:47 23.58674 46.20057 37198 ft 567 kts 97°
2026-04-24 22:48 23.56886 46.40101 37191 ft 566 kts 97°
2026-04-24 22:49 23.55324 46.57355 37194 ft 566 kts 97°
2026-04-24 22:49 23.54546 46.65879 37205 ft 565 kts 97°
2026-04-24 22:50 23.53764 46.74402 37200 ft 565 kts 97°
2026-04-24 22:50 23.52976 46.82925 37194 ft 565 kts 97°
2026-04-24 22:51 23.52189 46.91387 37186 ft 565 kts 97°
2026-04-24 22:51 23.51393 46.99903 37180 ft 565 kts 97°
2026-04-24 22:52 23.50593 47.08405 37164 ft 564 kts 97°
2026-04-24 22:52 23.49788 47.16909 37152 ft 565 kts 97°
2026-04-24 22:53 23.48983 47.25368 37145 ft 565 kts 97°
2026-04-24 22:53 23.48169 47.33868 37150 ft 565 kts 97°
2026-04-24 22:54 23.47350 47.42376 37142 ft 565 kts 97°
2026-04-24 22:54 23.46527 47.50880 37144 ft 565 kts 96°
2026-04-24 22:55 23.45705 47.59326 37140 ft 565 kts 96°
2026-04-24 22:55 23.44872 47.67831 37130 ft 565 kts 96°
2026-04-24 22:56 23.44035 47.76334 37127 ft 565 kts 96°
2026-04-24 22:56 23.43194 47.84833 37113 ft 565 kts 96°
2026-04-24 22:57 23.42347 47.93335 37094 ft 565 kts 96°
2026-04-24 22:57 23.41497 48.01831 37090 ft 565 kts 96°
2026-04-24 22:58 23.40647 48.10276 37085 ft 565 kts 96°
2026-04-24 22:58 23.39786 48.18781 37079 ft 565 kts 96°
2026-04-24 22:59 23.38921 48.27284 37072 ft 565 kts 96°
2026-04-24 23:00 23.37981 48.40017 37067 ft 565 kts 92°
2026-04-24 23:00 23.37646 48.48568 37063 ft 566 kts 92°
2026-04-24 23:01 23.37299 48.57114 37085 ft 565 kts 92°
2026-04-24 23:01 23.37006 48.64216 37078 ft 566 kts 92°
2026-04-24 23:02 23.36590 48.74156 37081 ft 566 kts 92°
2026-04-24 23:02 23.36228 48.82705 37075 ft 565 kts 92°
2026-04-24 23:03 23.35862 48.91246 37070 ft 565 kts 92°
2026-04-24 23:03 23.35554 48.98351 37069 ft 565 kts 92°
2026-04-24 23:04 23.34958 49.08270 37063 ft 565 kts 98°
2026-04-24 23:04 23.33721 49.16711 37064 ft 565 kts 99°
2026-04-24 23:05 23.32716 49.23739 37062 ft 565 kts 99°
2026-04-24 23:05 23.31507 49.32184 37060 ft 565 kts 99°
2026-04-24 23:06 23.30088 49.42010 37065 ft 565 kts 99°
2026-04-24 23:06 23.29061 49.49082 37066 ft 565 kts 99°
2026-04-24 23:07 23.27839 49.57460 37070 ft 565 kts 99°
2026-04-24 23:07 23.26606 49.65893 37066 ft 564 kts 99°
2026-04-24 23:08 23.25368 49.74320 37070 ft 564 kts 99°
2026-04-24 23:08 23.24126 49.82741 37069 ft 564 kts 99°
2026-04-24 23:09 23.22891 49.91090 37073 ft 563 kts 99°
2026-04-24 23:09 23.21642 49.99497 37065 ft 563 kts 99°
2026-04-24 23:10 23.20391 50.07889 37060 ft 562 kts 99°
2026-04-24 23:10 23.19136 50.16274 37060 ft 562 kts 99°
2026-04-24 23:11 23.17885 50.24603 37057 ft 562 kts 99°
2026-04-24 23:11 23.16623 50.32968 37061 ft 562 kts 99°
2026-04-24 23:12 23.15355 50.41354 37053 ft 561 kts 99°
2026-04-24 23:12 23.14085 50.49708 37051 ft 561 kts 99°
2026-04-24 23:13 23.12817 50.58026 37052 ft 561 kts 99°
2026-04-24 23:13 23.11538 50.66386 37045 ft 561 kts 99°
2026-04-24 23:14 23.10255 50.74743 37042 ft 561 kts 99°
2026-04-24 23:14 23.08968 50.83097 37048 ft 561 kts 99°
2026-04-24 23:15 23.07686 50.91382 37050 ft 561 kts 99°
2026-04-24 23:15 23.06390 50.99734 37046 ft 560 kts 99°
2026-04-24 23:16 23.05090 51.08076 37050 ft 560 kts 99°
2026-04-24 23:16 23.03787 51.16417 37050 ft 560 kts 99°
2026-04-24 23:17 23.02488 51.24694 37047 ft 560 kts 99°
2026-04-24 23:17 23.01178 51.33015 37046 ft 560 kts 99°
2026-04-24 23:18 22.99869 51.41301 37035 ft 552 kts 100°
2026-04-24 23:18 22.98577 51.49449 37046 ft 546 kts 100°
2026-04-24 23:19 22.97293 51.57527 37046 ft 547 kts 100°
2026-04-24 23:19 22.95994 51.65664 37047 ft 548 kts 100°
2026-04-24 23:20 22.94691 51.73799 37044 ft 547 kts 100°
2026-04-24 23:20 22.93386 51.81922 37039 ft 546 kts 100°
2026-04-24 23:21 22.92085 51.89991 37036 ft 546 kts 100°
2026-04-24 23:21 22.90774 51.98096 37038 ft 546 kts 100°
2026-04-24 23:22 22.89458 52.06202 37034 ft 545 kts 100°
2026-04-24 23:22 22.88139 52.14299 37031 ft 545 kts 100°
2026-04-24 23:23 22.86827 52.22334 37031 ft 545 kts 100°
2026-04-24 23:23 22.85501 52.30424 37032 ft 544 kts 100°
2026-04-24 23:24 22.84173 52.38503 37031 ft 544 kts 100°
2026-04-24 23:24 22.82845 52.46572 37033 ft 544 kts 99°
2026-04-24 23:25 22.82286 52.54666 37028 ft 542 kts 90°
2026-04-24 23:25 22.82096 52.62834 37030 ft 542 kts 90°
2026-04-24 23:26 22.81885 52.70998 37031 ft 542 kts 90°
2026-04-24 23:26 22.81669 52.79156 37033 ft 541 kts 90°
2026-04-24 23:27 22.81450 52.87254 37034 ft 541 kts 90°
2026-04-24 23:27 22.81227 52.95405 37033 ft 541 kts 90°
2026-04-24 23:28 22.80999 53.03541 37032 ft 540 kts 90°
2026-04-24 23:28 22.80767 53.11674 37028 ft 540 kts 90°
2026-04-24 23:29 22.80533 53.19752 37030 ft 539 kts 90°
2026-04-24 23:29 22.80293 53.27869 37042 ft 539 kts 91°
2026-04-24 23:30 22.80050 53.35981 37028 ft 538 kts 91°
2026-04-24 23:30 22.79802 53.44094 37027 ft 538 kts 91°
2026-04-24 23:31 22.79551 53.52195 37029 ft 538 kts 91°
2026-04-24 23:31 22.79298 53.60229 37034 ft 537 kts 91°
2026-04-24 23:32 22.79038 53.68325 37036 ft 537 kts 91°
2026-04-24 23:32 22.78776 53.76403 37024 ft 536 kts 91°
2026-04-24 23:33 22.78510 53.84472 37022 ft 536 kts 91°
2026-04-24 23:33 22.78240 53.92497 37021 ft 536 kts 91°
2026-04-24 23:34 22.78403 54.00546 37017 ft 533 kts 81°
2026-04-24 23:34 22.79827 54.08390 37013 ft 530 kts 75°
2026-04-24 23:35 22.81416 54.16192 37016 ft 530 kts 75°
2026-04-24 23:35 22.82984 54.23952 37014 ft 530 kts 75°
2026-04-24 23:36 22.84562 54.31759 37013 ft 531 kts 75°
2026-04-24 23:36 22.86141 54.39578 37014 ft 531 kts 75°
2026-04-24 23:37 22.87714 54.47393 37010 ft 531 kts 75°
2026-04-24 23:37 22.90060 54.59084 37007 ft 531 kts 75°
2026-04-24 23:38 22.91626 54.66913 37002 ft 532 kts 75°
2026-04-24 23:38 22.93190 54.74753 37005 ft 532 kts 75°
2026-04-24 23:39 22.94749 54.82592 37003 ft 532 kts 75°
2026-04-24 23:39 22.95809 54.87934 37002 ft 533 kts 75°
2026-04-24 23:40 22.97365 54.95791 37006 ft 533 kts 75°
2026-04-24 23:40 22.98920 55.03661 37016 ft 533 kts 75°
2026-04-24 23:41 23.00477 55.11521 37016 ft 532 kts 73°
2026-04-24 23:41 23.01652 55.15306 37018 ft 527 kts 62°
2026-04-24 23:41 23.03391 55.18709 37020 ft 520 kts 51°
2026-04-24 23:42 23.05655 55.21725 37022 ft 513 kts 40°
2026-04-24 23:42 23.08339 55.24245 37021 ft 506 kts 30°
2026-04-24 23:42 23.14516 55.27574 37020 ft 491 kts 11°
2026-04-24 23:43 23.21093 55.29491 37025 ft 490 kts
2026-04-24 23:43 23.27674 55.31436 37028 ft 490 kts 10°
2026-04-24 23:44 23.34211 55.33369 37027 ft 490 kts
2026-04-24 23:44 23.40804 55.35316 37032 ft 491 kts
2026-04-24 23:45 23.47397 55.37265 37036 ft 491 kts
2026-04-24 23:45 23.53996 55.39218 37039 ft 492 kts
2026-04-24 23:46 23.60559 55.41160 37038 ft 492 kts
2026-04-24 23:46 23.67166 55.43117 37044 ft 493 kts
2026-04-24 23:47 23.73790 55.45081 37049 ft 493 kts
2026-04-24 23:47 23.80418 55.47049 37052 ft 493 kts
2026-04-24 23:48 23.86996 55.49004 37055 ft 494 kts
2026-04-24 23:48 23.93626 55.50972 37058 ft 494 kts
2026-04-24 23:49 24.00110 55.53525 37034 ft 503 kts 22°
2026-04-24 23:49 24.03116 55.55512 36762 ft 504 kts 31°
2026-04-24 23:49 24.05861 55.57924 36119 ft 509 kts 38°
2026-04-24 23:50 24.08474 55.60545 35162 ft 513 kts 38°
2026-04-24 23:50 24.11143 55.63196 34053 ft 521 kts 39°
2026-04-24 23:50 24.13848 55.65874 32851 ft 527 kts 39°
2026-04-24 23:50 24.16524 55.68527 32063 ft 524 kts 40°
2026-04-24 23:51 24.19207 55.71191 31530 ft 516 kts 40°
2026-04-24 23:51 24.21833 55.73801 31068 ft 506 kts 40°
2026-04-24 23:51 24.24434 55.76385 30407 ft 503 kts 40°
2026-04-24 23:51 24.27015 55.78950 29687 ft 500 kts 40°
2026-04-24 23:52 24.29581 55.81503 29053 ft 494 kts 40°
2026-04-24 23:52 24.32104 55.84014 28416 ft 488 kts 40°
2026-04-24 23:52 24.34606 55.86505 27792 ft 483 kts 40°
2026-04-24 23:52 24.37077 55.88967 27159 ft 478 kts 40°
2026-04-24 23:53 24.39492 55.91375 26534 ft 473 kts 40°
2026-04-24 23:53 24.41914 55.93789 25988 ft 467 kts 40°
2026-04-24 23:53 24.44291 55.96162 25558 ft 458 kts 40°
2026-04-24 23:53 24.46639 55.98505 24967 ft 454 kts 40°
2026-04-24 23:54 24.48970 56.00831 24398 ft 450 kts 40°
2026-04-24 23:54 24.51274 56.03133 23815 ft 447 kts 40°
2026-04-24 23:54 24.53566 56.05423 23184 ft 444 kts 40°
2026-04-24 23:54 24.55837 56.07696 22555 ft 438 kts 40°
2026-04-24 23:55 24.58075 56.09905 21580 ft 440 kts 37°
2026-04-24 23:55 24.60649 56.11682 20815 ft 435 kts 23°
2026-04-24 23:55 24.63471 56.12762 20160 ft 426 kts 11°
2026-04-24 23:55 24.66371 56.13297 19495 ft 421 kts
2026-04-24 23:56 24.69243 56.13813 19007 ft 413 kts
2026-04-24 23:56 24.72030 56.14331 18761 ft 399 kts
2026-04-24 23:56 24.74729 56.14835 18526 ft 389 kts
2026-04-24 23:56 24.77396 56.15235 18037 ft 386 kts
2026-04-24 23:57 24.80050 56.15015 17455 ft 380 kts 347°
2026-04-24 23:57 24.82542 56.14156 16896 ft 373 kts 334°
2026-04-24 23:57 24.84875 56.12968 16418 ft 367 kts 334°
2026-04-24 23:57 24.87199 56.11818 15654 ft 369 kts 335°
2026-04-24 23:58 24.89576 56.10654 14572 ft 380 kts 335°
2026-04-24 23:58 24.91901 56.09348 13744 ft 382 kts 324°
2026-04-24 23:58 24.93819 56.07372 13035 ft 377 kts 307°
2026-04-24 23:58 24.95082 56.04878 12371 ft 371 kts 291°
2026-04-24 23:59 24.96011 56.02243 11668 ft 367 kts 290°
2026-04-24 23:59 24.96931 55.99627 11008 ft 364 kts 290°
2026-04-24 23:59 24.97854 55.97061 10586 ft 354 kts 291°
2026-04-24 23:59 24.98755 55.94600 10423 ft 337 kts 291°
2026-04-25 00:00 24.99617 55.92265 10283 ft 322 kts 291°
2026-04-25 00:00 25.00446 55.90026 10163 ft 308 kts 291°
2026-04-25 00:00 25.01227 55.87916 10052 ft 295 kts 291°
2026-04-25 00:00 25.01998 55.85831 9789 ft 288 kts 291°
2026-04-25 00:01 25.02741 55.83819 9398 ft 286 kts 291°
2026-04-25 00:01 25.03488 55.81796 9002 ft 284 kts 291°
2026-04-25 00:01 25.04231 55.79783 8617 ft 282 kts 291°
2026-04-25 00:01 25.04971 55.77778 8145 ft 284 kts 291°
2026-04-25 00:02 25.05715 55.75759 7706 ft 284 kts 291°
2026-04-25 00:02 25.06452 55.73760 7315 ft 283 kts 291°
2026-04-25 00:02 25.07196 55.71744 6964 ft 280 kts 291°
2026-04-25 00:02 25.07912 55.69802 6856 ft 267 kts 291°
2026-04-25 00:03 25.08598 55.67942 6767 ft 256 kts 291°
2026-04-25 00:03 25.09197 55.66167 6684 ft 245 kts 290°
2026-04-25 00:03 25.09862 55.64481 6617 ft 235 kts 296°
2026-04-25 00:03 25.10635 55.62927 6538 ft 226 kts 299°
2026-04-25 00:04 25.11432 55.61464 6393 ft 222 kts 300°
2026-04-25 00:04 25.12248 55.59988 5981 ft 230 kts 300°
2026-04-25 00:04 25.13110 55.58430 5317 ft 247 kts 301°
2026-04-25 00:04 25.14036 55.56759 4530 ft 261 kts 301°
2026-04-25 00:05 25.15000 55.55020 3803 ft 266 kts 302°
2026-04-25 00:05 25.15937 55.53329 3268 ft 258 kts 302°
2026-04-25 00:05 25.16859 55.51664 2726 ft 250 kts 302°
2026-04-25 00:05 25.17752 55.50051 2214 ft 243 kts 302°
2026-04-25 00:06 25.18609 55.48503 1856 ft 228 kts 302°
2026-04-25 00:06 25.19387 55.47097 1620 ft 197 kts 302°
2026-04-25 00:06 25.20029 55.45936 1371 ft 162 kts 302°
2026-04-25 00:06 25.20583 55.44935 1162 ft 146 kts 302°
2026-04-25 00:07 25.21099 55.44004 980 ft 140 kts 302°
2026-04-25 00:07 25.21602 55.43095 812 ft 141 kts 302°
2026-04-25 00:07 25.22115 55.42171 649 ft 142 kts 302°
2026-04-25 00:07 25.22633 55.41232 461 ft 143 kts 302°
2026-04-25 00:08 25.23151 55.40298 286 ft 143 kts 302°
2026-04-25 00:08 25.23665 55.39357 100 ft 142 kts 301°
2026-04-25 00:08 25.24115 55.38533 55 ft 102 kts 303°
2026-04-25 00:08 25.24427 55.37986 46 ft 67 kts 301°
2026-04-25 00:09 25.24652 55.37593 41 ft 56 kts 301°
2026-04-25 00:09 25.24836 55.37248 39 ft 47 kts 297°
2026-04-25 00:09 25.24888 55.37062 36 ft 1 kts 232°
2026-04-25 00:09 25.24869 55.37040 36 ft 7 kts 219°
2026-04-25 00:10 25.24822 55.36982 35 ft 12 kts 251°
2026-04-25 00:10 25.24831 55.36874 34 ft 17 kts 289°
2026-04-25 00:10 25.24875 55.36733 32 ft 22 kts 289°
2026-04-25 00:10 25.24944 55.36577 29 ft 18 kts 301°
2026-04-25 00:11 25.25005 55.36467 28 ft 13 kts 302°
2026-04-25 00:11 25.25030 55.36436 27 ft 4 kts 324°
2026-04-25 00:11 25.25051 55.36398 27 ft 10 kts 298°
2026-04-25 00:11 25.25094 55.36311 30 ft 16 kts 298°
2026-04-25 00:12 25.25155 55.36187 29 ft 21 kts 299°
2026-04-25 00:12 25.25240 55.36023 24 ft 29 kts 300°
2026-04-25 00:12 25.25356 55.35805 21 ft 36 kts 301°
2026-04-25 00:12 25.25449 55.35641 17 ft 16 kts 302°
2026-04-25 00:13 25.25527 55.35506 22 ft 25 kts 302°
2026-04-25 00:13 25.25628 55.35334 21 ft 20 kts 302°
2026-04-25 00:13 25.25695 55.35217 25 ft 16 kts 302°
2026-04-25 00:13 25.25737 55.35144 27 ft 10 kts 301°
2026-04-25 00:14 25.25766 55.35090 29 ft 4 kts 300°
2026-04-25 00:14 25.25779 55.35067 26 ft 6 kts 301°
2026-04-25 00:14 25.25818 55.34995 26 ft 16 kts 301°